Terug naar catalogus

STARLINK-31458

ActiefCommunicatieVLEO
NORAD 59501·PAYLOAD·🇺🇸 United States

Gelanceerd Apr 13, 2024 vanaf Cape Canaveral Space Force Station

Loading…

Volgende Passages (komende 24 uur)

TLE

VersSource: CelesTrak SupGP

Epoch: Sep 14, 2026, 22:42 UTC

1 59501C 24071T   26257.94631944 -.00026801  00000+0 -97083-3 0  2571
2 59501  43.0028 350.7794 0001489 267.0265  19.5589 15.27588385    14

Volg STARLINK-31458 in realtime met AllMySat

Download on the App Store